Wetterdaten: Woche 12.01.26 - 18.01.26 (KW3)
Datum Zeit Temp. Aussen Temp. o. S. Temp +5cm Feuchte Auss Luftdruck Regen Sonnenschein Regendauer Solar Windböen Empfang
12.01.2026 00:00 0,2 °C -0,3 °C -3,4 °C 91 % 1017,1 hPa 0,0 l/m² 0,00 h 0,00 h 0 W/m² 25,1 km/h (4 Bft) 92,81 %
12.01.2026 01:00 0,4 °C 0,0 °C -3,3 °C 90 % 1016,1 hPa 0,0 l/m² 0,00 h 0,00 h 0 W/m² 29,5 km/h (5 Bft) 95,48 %
12.01.2026 02:00 0,6 °C 0,0 °C -3,7 °C 91 % 1015,3 hPa 0,0 l/m² 0,00 h 0,00 h 0 W/m² 26,7 km/h (4 Bft) 96,67 %
12.01.2026 03:00 0,3 °C -0,6 °C -3,9 °C 93 % 1014,2 hPa 0,0 l/m² 0,00 h 0,50 h 0 W/m² 25,3 km/h (4 Bft) 94,52 %
12.01.2026 04:00 0,4 °C -0,2 °C -3,7 °C 95 % 1012,7 hPa 0,0 l/m² 0,00 h 0,00 h 0 W/m² 28,0 km/h (4 Bft) 94,06 %
12.01.2026 05:00 0,6 °C 0,0 °C -3,3 °C 96 % 1011,7 hPa 0,0 l/m² 0,00 h 0,00 h 0 W/m² 24,5 km/h (4 Bft) 97,09 %
12.01.2026 06:00 0,7 °C 0,0 °C -3,2 °C 96 % 1011,0 hPa 0,7 l/m² 0,00 h 0,27 h 0 W/m² 22,0 km/h (4 Bft) 97,36 %
12.01.2026 07:00 0,8 °C 0,0 °C -2,8 °C 96 % 1011,1 hPa 1,4 l/m² 0,00 h 0,37 h 0 W/m² 19,6 km/h (3 Bft) 96,30 %
12.01.2026 08:00 1,0 °C 0,2 °C -2,8 °C 97 % 1011,1 hPa 0,5 l/m² 0,00 h 0,03 h 0 W/m² 19,9 km/h (4 Bft) 98,41 %
12.01.2026 09:00 1,2 °C 0,6 °C -2,2 °C 97 % 1011,1 hPa 0,5 l/m² 0,00 h 0,00 h 10 W/m² 17,4 km/h (3 Bft) 99,23 %
12.01.2026 10:00 1,6 °C 1,0 °C -2,0 °C 98 % 1011,2 hPa 0,2 l/m² 0,00 h 0,00 h 26 W/m² 17,0 km/h (3 Bft) 95,00 %
12.01.2026 11:00 1,9 °C 1,4 °C -1,6 °C 98 % 1010,9 hPa 0,2 l/m² 0,00 h 0,00 h 40 W/m² 17,1 km/h (3 Bft) 97,21 %
12.01.2026 12:00 2,4 °C 2,0 °C -0,8 °C 98 % 1010,3 hPa 0,2 l/m² 0,00 h 0,00 h 68 W/m² 15,2 km/h (3 Bft) 96,91 %
12.01.2026 13:00 2,9 °C 2,8 °C -0,5 °C 99 % 1010,0 hPa 0,0 l/m² 0,00 h 0,00 h 64 W/m² 14,6 km/h (3 Bft) 97,69 %
12.01.2026 14:00 3,3 °C 3,2 °C 0,0 °C 99 % 1009,7 hPa 0,0 l/m² 0,00 h 0,03 h 40 W/m² 16,3 km/h (3 Bft) 98,60 %
12.01.2026 15:00 3,7 °C 3,3 °C 0,1 °C 99 % 1009,2 hPa 1,2 l/m² 0,00 h 0,63 h 18 W/m² 13,9 km/h (3 Bft) 97,24 %
12.01.2026 16:00 4,1 °C 3,3 °C 0,6 °C 99 % 1008,8 hPa 1,7 l/m² 0,00 h 0,87 h 6 W/m² 15,2 km/h (3 Bft) 97,32 %
12.01.2026 17:00 4,4 °C 3,9 °C 1,0 °C 99 % 1008,5 hPa 3,6 l/m² 0,00 h 1,00 h 0 W/m² 12,7 km/h (3 Bft) 96,68 %
12.01.2026 18:00 4,7 °C 4,0 °C 1,2 °C 99 % 1007,7 hPa 1,7 l/m² 0,00 h 0,73 h 0 W/m² 13,8 km/h (3 Bft) 97,00 %
12.01.2026 19:00 5,1 °C 4,4 °C 1,7 °C 99 % 1007,5 hPa 0,5 l/m² 0,00 h 0,20 h 0 W/m² 10,3 km/h (2 Bft) 97,68 %
12.01.2026 20:00 6,8 °C 6,3 °C 3,1 °C 100 % 1008,0 hPa 0,5 l/m² 0,00 h 0,10 h 0 W/m² 11,3 km/h (2 Bft) 96,00 %
12.01.2026 21:00 7,8 °C 7,0 °C 3,9 °C 100 % 1008,5 hPa 0,0 l/m² 0,00 h 0,00 h 0 W/m² 8,1 km/h (2 Bft) 98,40 %
12.01.2026 22:00 7,8 °C 7,1 °C 3,9 °C 100 % 1008,8 hPa 0,0 l/m² 0,00 h 0,00 h 0 W/m² 10,9 km/h (2 Bft) 98,14 %
12.01.2026 23:00 7,5 °C 6,7 °C 3,5 °C 100 % 1009,3 hPa 0,0 l/m² 0,00 h 0,00 h 0 W/m² 5,9 km/h (2 Bft) 96,95 %
13.01.2026 00:00 7,5 °C 6,9 °C 3,7 °C 100 % 1010,0 hPa 0,0 l/m² 0,00 h 0,00 h 0 W/m² 6,2 km/h (2 Bft) 97,46 %
13.01.2026 01:00 7,7 °C 7,1 °C 3,7 °C 100 % 1010,2 hPa 0,0 l/m² 0,00 h 0,00 h 0 W/m² 6,3 km/h (2 Bft) 96,87 %
13.01.2026 02:00 7,8 °C 7,2 °C 4,1 °C 100 % 1010,5 hPa 0,0 l/m² 0,00 h 0,00 h 0 W/m² 7,5 km/h (2 Bft) 98,37 %
13.01.2026 03:00 7,7 °C 7,0 °C 3,9 °C 100 % 1010,6 hPa 0,0 l/m² 0,00 h 0,00 h 0 W/m² 3,8 km/h (1 Bft) 96,70 %
13.01.2026 04:00 7,3 °C 6,7 °C 3,6 °C 99 % 1010,6 hPa 0,0 l/m² 0,00 h 0,00 h 0 W/m² 0,3 km/h (0 Bft) 97,79 %
13.01.2026 05:00 7,4 °C 7,1 °C 3,9 °C 99 % 1010,7 hPa 0,0 l/m² 0,00 h 0,00 h 0 W/m² 2,3 km/h (1 Bft) 98,56 %
13.01.2026 06:00 7,4 °C 6,8 °C 3,9 °C 99 % 1010,9 hPa 0,0 l/m² 0,00 h 0,00 h 0 W/m² 4,6 km/h (1 Bft) 95,48 %
13.01.2026 07:00 7,3 °C 6,7 °C 3,9 °C 99 % 1011,1 hPa 0,0 l/m² 0,00 h 0,00 h 0 W/m² 4,5 km/h (1 Bft) 97,15 %
13.01.2026 08:00 7,3 °C 6,7 °C 4,1 °C 99 % 1011,3 hPa 0,2 l/m² 0,00 h 0,03 h 0 W/m² 7,2 km/h (2 Bft) 99,25 %
13.01.2026 09:00 7,5 °C 6,8 °C 4,4 °C 99 % 1011,3 hPa 0,2 l/m² 0,00 h 0,00 h 23 W/m² 7,9 km/h (2 Bft) 95,28 %
13.01.2026 10:00 7,7 °C 7,5 °C 4,7 °C 100 % 1011,4 hPa 0,0 l/m² 0,00 h 0,00 h 43 W/m² 11,3 km/h (2 Bft) 99,32 %
13.01.2026 11:00 8,3 °C 8,5 °C 5,4 °C 100 % 1011,3 hPa 0,0 l/m² 0,03 h 0,00 h 82 W/m² 11,8 km/h (2 Bft) 97,96 %
13.01.2026 12:00 9,2 °C 10,9 °C 6,4 °C 100 % 1010,7 hPa 0,0 l/m² 0,13 h 0,00 h 151 W/m² 11,1 km/h (2 Bft) 96,80 %
13.01.2026 13:00 9,9 °C 10,7 °C 6,8 °C 100 % 1010,2 hPa 0,0 l/m² 0,13 h 0,03 h 86 W/m² 8,3 km/h (2 Bft) 96,54 %
13.01.2026 14:00 9,8 °C 9,7 °C 6,7 °C 98 % 1009,6 hPa 0,0 l/m² 0,00 h 0,17 h 48 W/m² 8,5 km/h (2 Bft) 98,20 %
13.01.2026 15:00 9,8 °C 9,5 °C 6,6 °C 96 % 1009,3 hPa 0,0 l/m² 0,00 h 0,00 h 41 W/m² 11,3 km/h (2 Bft) 96,17 %
13.01.2026 16:00 9,4 °C 8,7 °C 5,9 °C 92 % 1009,1 hPa 0,0 l/m² 0,00 h 0,00 h 17 W/m² 14,0 km/h (3 Bft) 99,44 %
13.01.2026 17:00 8,8 °C 8,0 °C 5,5 °C 92 % 1009,4 hPa 0,0 l/m² 0,00 h 0,00 h 0 W/m² 16,0 km/h (3 Bft) 96,51 %
13.01.2026 18:00 8,3 °C 7,8 °C 5,0 °C 92 % 1009,1 hPa 0,0 l/m² 0,00 h 0,00 h 0 W/m² 17,9 km/h (3 Bft) 97,28 %
13.01.2026 19:00 8,1 °C 7,4 °C 4,7 °C 92 % 1008,9 hPa 0,0 l/m² 0,00 h 0,00 h 0 W/m² 17,6 km/h (3 Bft) 97,53 %
13.01.2026 20:00 7,8 °C 7,2 °C 4,4 °C 92 % 1008,9 hPa 0,0 l/m² 0,00 h 0,00 h 0 W/m² 15,4 km/h (3 Bft) 98,25 %
13.01.2026 21:00 7,7 °C 7,0 °C 4,0 °C 93 % 1008,8 hPa 0,0 l/m² 0,00 h 0,00 h 0 W/m² 12,8 km/h (3 Bft) 96,04 %
13.01.2026 22:00 7,6 °C 7,0 °C 3,9 °C 93 % 1009,0 hPa 0,0 l/m² 0,00 h 0,00 h 0 W/m² 6,7 km/h (2 Bft) 97,30 %
13.01.2026 23:00 7,4 °C 6,6 °C 3,5 °C 94 % 1009,1 hPa 0,0 l/m² 0,00 h 0,00 h 0 W/m² 3,8 km/h (1 Bft) 98,32 %
14.01.2026 00:00 7,3 °C 6,8 °C 3,2 °C 94 % 1009,2 hPa 0,0 l/m² 0,00 h 0,00 h 0 W/m² 1,2 km/h (1 Bft) 92,41 %
14.01.2026 01:00 7,9 °C 7,8 °C 4,3 °C 95 % 1009,4 hPa 0,0 l/m² 0,00 h 0,00 h 0 W/m² 4,9 km/h (1 Bft) 97,10 %
14.01.2026 02:00 9,4 °C 9,0 °C 5,5 °C 91 % 1009,5 hPa 0,0 l/m² 0,00 h 0,00 h 0 W/m² 15,1 km/h (3 Bft) 98,31 %
14.01.2026 03:00 9,8 °C 9,1 °C 5,6 °C 89 % 1009,7 hPa 0,0 l/m² 0,00 h 0,00 h 0 W/m² 15,7 km/h (3 Bft) 95,79 %
14.01.2026 04:00 9,6 °C 8,7 °C 4,9 °C 90 % 1009,8 hPa 0,2 l/m² 0,00 h 0,30 h 0 W/m² 16,8 km/h (3 Bft) 97,98 %
14.01.2026 05:00 9,1 °C 8,0 °C 4,4 °C 94 % 1010,1 hPa 0,5 l/m² 0,00 h 0,43 h 0 W/m² 15,9 km/h (3 Bft) 98,98 %
14.01.2026 06:00 8,7 °C 7,8 °C 4,4 °C 96 % 1010,6 hPa 1,4 l/m² 0,00 h 0,20 h 0 W/m² 11,1 km/h (2 Bft) 93,27 %
14.01.2026 07:00 8,5 °C 7,8 °C 4,4 °C 98 % 1011,2 hPa 1,2 l/m² 0,00 h 0,40 h 0 W/m² 9,8 km/h (2 Bft) 99,40 %
14.01.2026 08:00 8,4 °C 7,8 °C 4,4 °C 98 % 1012,1 hPa 0,2 l/m² 0,00 h 0,10 h 0 W/m² 7,4 km/h (2 Bft) 97,57 %
14.01.2026 09:00 8,4 °C 7,8 °C 4,5 °C 99 % 1013,0 hPa 0,0 l/m² 0,00 h 0,07 h 5 W/m² 6,7 km/h (2 Bft) 96,06 %
14.01.2026 10:00 7,7 °C 7,1 °C 4,4 °C 99 % 1014,0 hPa 0,0 l/m² 0,00 h 0,00 h 18 W/m² 3,3 km/h (1 Bft) 97,81 %
14.01.2026 11:00 7,6 °C 7,2 °C 4,4 °C 99 % 1014,7 hPa 0,0 l/m² 0,00 h 0,00 h 46 W/m² 5,3 km/h (1 Bft) 97,85 %
14.01.2026 12:00 7,6 °C 7,6 °C 4,4 °C 99 % 1014,9 hPa 0,0 l/m² 0,00 h 0,00 h 54 W/m² 3,1 km/h (1 Bft) 95,26 %
14.01.2026 13:00 7,3 °C 7,0 °C 4,2 °C 99 % 1014,9 hPa 0,0 l/m² 0,00 h 0,00 h 30 W/m² 3,5 km/h (1 Bft) 99,18 %
14.01.2026 14:00 7,2 °C 7,2 °C 4,2 °C 99 % 1014,9 hPa 0,0 l/m² 0,00 h 0,00 h 37 W/m² 0,6 km/h (0 Bft) 95,86 %
14.01.2026 15:00 7,3 °C 7,2 °C 4,1 °C 99 % 1014,9 hPa 0,0 l/m² 0,00 h 0,00 h 25 W/m² 1,4 km/h (1 Bft) 97,69 %
14.01.2026 16:00 7,2 °C 6,9 °C 3,9 °C 99 % 1015,0 hPa 0,2 l/m² 0,00 h 0,00 h 6 W/m² 1,9 km/h (1 Bft) 97,28 %
14.01.2026 17:00 7,1 °C 6,7 °C 3,9 °C 99 % 1014,8 hPa 0,0 l/m² 0,00 h 0,00 h 0 W/m² 1,5 km/h (1 Bft) 98,13 %
14.01.2026 18:00 7,2 °C 6,7 °C 3,9 °C 99 % 1014,7 hPa 0,0 l/m² 0,00 h 0,00 h 0 W/m² 3,8 km/h (1 Bft) 96,42 %
14.01.2026 19:00 7,3 °C 6,7 °C 4,2 °C 99 % 1014,6 hPa 0,0 l/m² 0,00 h 0,00 h 0 W/m² 4,1 km/h (1 Bft) 96,69 %
14.01.2026 20:00 7,5 °C 6,9 °C 4,4 °C 99 % 1014,4 hPa 0,0 l/m² 0,00 h 0,00 h 0 W/m² 3,8 km/h (1 Bft) 98,44 %
14.01.2026 21:00 7,8 °C 7,2 °C 4,4 °C 99 % 1014,1 hPa 0,0 l/m² 0,00 h 0,00 h 0 W/m² 6,2 km/h (2 Bft) 95,32 %
14.01.2026 22:00 7,7 °C 7,0 °C 4,4 °C 100 % 1013,8 hPa 0,0 l/m² 0,00 h 0,00 h 0 W/m² 7,1 km/h (2 Bft) 98,23 %
14.01.2026 23:00 7,4 °C 6,7 °C 4,1 °C 100 % 1013,3 hPa 0,0 l/m² 0,00 h 0,00 h 0 W/m² 11,8 km/h (2 Bft) 98,32 %
15.01.2026 00:00 7,3 °C 6,7 °C 4,2 °C 100 % 1012,9 hPa 0,0 l/m² 0,00 h 0,00 h 0 W/m² 13,5 km/h (3 Bft) 95,08 %
15.01.2026 01:00 7,3 °C 6,9 °C 4,2 °C 100 % 1012,6 hPa 0,0 l/m² 0,00 h 0,00 h 0 W/m² 11,4 km/h (2 Bft) 97,71 %
15.01.2026 02:00 7,5 °C 7,2 °C 4,4 °C 100 % 1012,2 hPa 0,0 l/m² 0,00 h 0,00 h 0 W/m² 11,5 km/h (2 Bft) 98,58 %
15.01.2026 03:00 7,7 °C 7,2 °C 4,4 °C 100 % 1011,9 hPa 0,0 l/m² 0,00 h 0,00 h 0 W/m² 15,1 km/h (3 Bft) 94,89 %
15.01.2026 04:00 7,8 °C 7,2 °C 4,4 °C 100 % 1011,6 hPa 0,0 l/m² 0,00 h 0,00 h 0 W/m² 13,6 km/h (3 Bft) 99,33 %
15.01.2026 05:00 7,6 °C 7,2 °C 4,4 °C 100 % 1011,5 hPa 0,0 l/m² 0,00 h 0,00 h 0 W/m² 10,1 km/h (2 Bft) 96,75 %
15.01.2026 06:00 7,5 °C 6,9 °C 4,3 °C 99 % 1011,4 hPa 0,0 l/m² 0,00 h 0,00 h 0 W/m² 7,8 km/h (2 Bft) 97,10 %
15.01.2026 07:00 7,2 °C 6,7 °C 4,1 °C 99 % 1011,3 hPa 0,0 l/m² 0,00 h 0,00 h 0 W/m² 8,9 km/h (2 Bft) 97,46 %
15.01.2026 08:00 7,4 °C 7,1 °C 4,4 °C 99 % 1011,1 hPa 0,0 l/m² 0,00 h 0,00 h 6 W/m² 11,7 km/h (2 Bft) 95,49 %
15.01.2026 09:00 7,7 °C 7,6 °C 5,0 °C 99 % 1011,1 hPa 0,0 l/m² 0,00 h 0,00 h 22 W/m² 13,8 km/h (3 Bft) 96,54 %
15.01.2026 10:00 8,3 °C 8,6 °C 5,7 °C 99 % 1011,1 hPa 0,0 l/m² 0,00 h 0,00 h 48 W/m² 10,2 km/h (2 Bft) 95,01 %
15.01.2026 11:00 8,9 °C 9,1 °C 6,2 °C 98 % 1011,2 hPa 0,0 l/m² 0,00 h 0,00 h 35 W/m² 12,3 km/h (3 Bft) 98,08 %
15.01.2026 12:00 9,9 °C 10,5 °C 7,1 °C 95 % 1010,8 hPa 0,0 l/m² 0,00 h 0,00 h 103 W/m² 10,9 km/h (2 Bft) 97,13 %
15.01.2026 13:00 10,7 °C 10,6 °C 7,2 °C 89 % 1010,6 hPa 0,0 l/m² 0,00 h 0,00 h 48 W/m² 17,1 km/h (3 Bft) 97,14 %
15.01.2026 14:00 10,7 °C 10,1 °C 6,8 °C 89 % 1010,3 hPa 0,0 l/m² 0,00 h 0,00 h 34 W/m² 13,5 km/h (3 Bft) 98,18 %
15.01.2026 15:00 10,5 °C 10,0 °C 6,7 °C 87 % 1010,0 hPa 0,0 l/m² 0,00 h 0,00 h 30 W/m² 15,8 km/h (3 Bft) 96,78 %
15.01.2026 16:00 10,5 °C 10,0 °C 6,6 °C 84 % 1009,9 hPa 0,0 l/m² 0,00 h 0,00 h 21 W/m² 15,7 km/h (3 Bft) 97,00 %
15.01.2026 17:00 10,3 °C 9,6 °C 6,1 °C 83 % 1009,7 hPa 0,0 l/m² 0,00 h 0,00 h 0 W/m² 14,4 km/h (3 Bft) 98,46 %
15.01.2026 18:00 10,0 °C 9,1 °C 5,7 °C 84 % 1009,4 hPa 0,0 l/m² 0,00 h 0,00 h 0 W/m² 16,3 km/h (3 Bft) 96,53 %
15.01.2026 19:00 9,5 °C 8,8 °C 5,1 °C 88 % 1009,0 hPa 0,0 l/m² 0,00 h 0,00 h 0 W/m² 17,7 km/h (3 Bft) 97,57 %
15.01.2026 20:00 9,5 °C 8,9 °C 5,2 °C 87 % 1008,7 hPa 0,0 l/m² 0,00 h 0,00 h 0 W/m² 22,4 km/h (4 Bft) 98,03 %
15.01.2026 21:00 9,3 °C 8,6 °C 5,0 °C 87 % 1008,5 hPa 0,0 l/m² 0,00 h 0,00 h 0 W/m² 20,9 km/h (4 Bft) 96,85 %
15.01.2026 22:00 9,3 °C 8,4 °C 5,0 °C 88 % 1008,2 hPa 0,0 l/m² 0,00 h 0,00 h 0 W/m² 23,2 km/h (4 Bft) 97,45 %
15.01.2026 23:00 9,2 °C 8,3 °C 5,0 °C 89 % 1007,8 hPa 0,0 l/m² 0,00 h 0,00 h 0 W/m² 21,2 km/h (4 Bft) 98,21 %
16.01.2026 00:00 9,3 °C 8,6 °C 5,0 °C 89 % 1007,2 hPa 0,0 l/m² 0,00 h 0,00 h 0 W/m² 23,6 km/h (4 Bft) 94,40 %
16.01.2026 01:00 9,5 °C 8,9 °C 5,2 °C 88 % 1007,2 hPa 0,0 l/m² 0,00 h 0,00 h 0 W/m² 20,8 km/h (4 Bft) 97,33 %
16.01.2026 02:00 9,9 °C 9,4 °C 5,6 °C 86 % 1007,4 hPa 0,0 l/m² 0,00 h 0,00 h 0 W/m² 19,7 km/h (3 Bft) 97,12 %
16.01.2026 03:00 10,3 °C 9,4 °C 5,6 °C 84 % 1007,9 hPa 0,0 l/m² 0,00 h 0,00 h 0 W/m² 16,2 km/h (3 Bft) 95,23 %
16.01.2026 04:00 10,3 °C 9,6 °C 5,6 °C 84 % 1008,3 hPa 0,0 l/m² 0,00 h 0,00 h 0 W/m² 16,5 km/h (3 Bft) 98,15 %
16.01.2026 05:00 10,7 °C 10,0 °C 6,0 °C 83 % 1008,9 hPa 0,0 l/m² 0,00 h 0,00 h 0 W/m² 21,7 km/h (4 Bft) 97,91 %
16.01.2026 06:00 10,8 °C 10,0 °C 6,1 °C 84 % 1009,6 hPa 0,0 l/m² 0,00 h 0,00 h 0 W/m² 25,1 km/h (4 Bft) 95,73 %
16.01.2026 07:00 10,6 °C 9,9 °C 5,7 °C 85 % 1010,5 hPa 0,0 l/m² 0,00 h 0,00 h 0 W/m² 16,9 km/h (3 Bft) 99,25 %
16.01.2026 08:00 10,2 °C 9,4 °C 5,3 °C 86 % 1011,4 hPa 0,0 l/m² 0,00 h 0,00 h 7 W/m² 12,2 km/h (2 Bft) 95,62 %
16.01.2026 09:00 9,8 °C 9,4 °C 5,1 °C 87 % 1012,2 hPa 0,0 l/m² 0,00 h 0,00 h 45 W/m² 7,5 km/h (2 Bft) 98,05 %
16.01.2026 10:00 9,9 °C 9,7 °C 5,6 °C 89 % 1013,1 hPa 0,0 l/m² 0,03 h 0,00 h 85 W/m² 8,7 km/h (2 Bft) 97,07 %
16.01.2026 11:00 10,7 °C 11,0 °C 6,6 °C 89 % 1013,6 hPa 0,0 l/m² 0,03 h 0,00 h 120 W/m² 9,3 km/h (2 Bft) 96,33 %
16.01.2026 12:00 11,1 °C 10,5 °C 6,5 °C 88 % 1013,7 hPa 0,0 l/m² 0,00 h 0,00 h 59 W/m² 11,5 km/h (2 Bft) 97,39 %
16.01.2026 13:00 10,8 °C 10,2 °C 5,9 °C 91 % 1013,8 hPa 0,0 l/m² 0,00 h 0,00 h 45 W/m² 8,7 km/h (2 Bft) 97,64 %
16.01.2026 14:00 10,7 °C 10,0 °C 5,6 °C 92 % 1014,1 hPa 0,2 l/m² 0,00 h 0,03 h 42 W/m² 8,5 km/h (2 Bft) 95,07 %
16.01.2026 15:00 10,3 °C 9,6 °C 5,6 °C 94 % 1014,3 hPa 0,0 l/m² 0,00 h 0,00 h 39 W/m² 12,2 km/h (2 Bft) 98,65 %
16.01.2026 16:00 10,0 °C 9,1 °C 5,4 °C 94 % 1014,7 hPa 0,5 l/m² 0,00 h 0,13 h 14 W/m² 8,3 km/h (2 Bft) 97,23 %
16.01.2026 17:00 9,7 °C 8,5 °C 4,6 °C 95 % 1015,1 hPa 0,2 l/m² 0,00 h 0,03 h 0 W/m² 0,4 km/h (0 Bft) 95,91 %
16.01.2026 18:00 9,5 °C 8,3 °C 4,8 °C 96 % 1015,6 hPa 1,2 l/m² 0,00 h 0,75 h 0 W/m² 0,7 km/h (0 Bft) 98,87 %
16.01.2026 19:00 9,2 °C 7,9 °C 4,5 °C 96 % 1016,1 hPa 0,5 l/m² 0,00 h 0,13 h 0 W/m² 1,4 km/h (1 Bft) 96,45 %
16.01.2026 20:00 8,7 °C 7,4 °C 4,1 °C 97 % 1016,2 hPa 0,0 l/m² 0,00 h 0,00 h 0 W/m² 0,4 km/h (0 Bft) 96,49 %
16.01.2026 21:00 8,1 °C 7,0 °C 3,7 °C 97 % 1016,2 hPa 0,0 l/m² 0,00 h 0,00 h 0 W/m² 1,8 km/h (1 Bft) 97,73 %
16.01.2026 22:00 7,7 °C 6,7 °C 3,4 °C 97 % 1016,4 hPa 0,0 l/m² 0,00 h 0,00 h 0 W/m² 0,9 km/h (0 Bft) 97,33 %
16.01.2026 23:00 7,4 °C 6,7 °C 3,3 °C 97 % 1016,7 hPa 0,0 l/m² 0,00 h 0,03 h 0 W/m² 1,2 km/h (1 Bft) 94,02 %
17.01.2026 00:00 7,4 °C 6,7 °C 3,3 °C 98 % 1016,8 hPa 0,0 l/m² 0,00 h 0,03 h 0 W/m² 1,9 km/h (1 Bft) 98,10 %
17.01.2026 01:00 7,3 °C 6,5 °C 3,3 °C 98 % 1016,6 hPa 0,0 l/m² 0,00 h 0,03 h 0 W/m² 0,0 km/h (0 Bft) 97,57 %
17.01.2026 02:00 6,8 °C 5,6 °C 2,8 °C 98 % 1016,7 hPa 0,0 l/m² 0,00 h 0,00 h 0 W/m² 0,0 km/h (0 Bft) 95,13 %
17.01.2026 03:00 6,8 °C 6,5 °C 3,2 °C 98 % 1016,7 hPa 0,0 l/m² 0,00 h 0,00 h 0 W/m² 0,0 km/h (0 Bft) 97,08 %
17.01.2026 04:00 7,1 °C 6,7 °C 3,3 °C 98 % 1016,7 hPa 0,0 l/m² 0,00 h 0,00 h 0 W/m² 5,4 km/h (1 Bft) 98,92 %
17.01.2026 05:00 6,9 °C 6,7 °C 3,3 °C 98 % 1016,8 hPa 0,0 l/m² 0,00 h 0,00 h 0 W/m² 6,6 km/h (2 Bft) 94,34 %
17.01.2026 06:00 7,1 °C 7,0 °C 3,4 °C 98 % 1016,9 hPa 0,0 l/m² 0,00 h 0,00 h 0 W/m² 11,3 km/h (2 Bft) 97,78 %
17.01.2026 07:00 7,3 °C 7,1 °C 3,6 °C 94 % 1017,2 hPa 0,0 l/m² 0,00 h 0,00 h 0 W/m² 14,3 km/h (3 Bft) 97,65 %
17.01.2026 08:00 7,2 °C 6,3 °C 3,1 °C 91 % 1017,8 hPa 0,0 l/m² 0,00 h 0,00 h 9 W/m² 11,5 km/h (2 Bft) 94,94 %
17.01.2026 09:00 6,7 °C 6,5 °C 3,1 °C 92 % 1018,4 hPa 0,0 l/m² 0,00 h 0,00 h 43 W/m² 12,3 km/h (3 Bft) 97,99 %
17.01.2026 10:00 7,8 °C 8,0 °C 4,2 °C 89 % 1018,9 hPa 0,0 l/m² 0,43 h 0,00 h 122 W/m² 16,4 km/h (3 Bft) 96,08 %
17.01.2026 11:00 9,4 °C 11,4 °C 4,6 °C 82 % 1019,1 hPa 0,0 l/m² 0,97 h 0,00 h 222 W/m² 18,7 km/h (3 Bft) 96,65 %
17.01.2026 12:00 10,1 °C 13,8 °C 5,3 °C 79 % 1019,1 hPa 0,0 l/m² 0,77 h 0,00 h 239 W/m² 16,1 km/h (3 Bft) 99,78 %
17.01.2026 13:00 11,4 °C 16,5 °C 6,0 °C 76 % 1019,0 hPa 0,0 l/m² 1,00 h 0,00 h 269 W/m² 13,6 km/h (3 Bft) 96,82 %
17.01.2026 14:00 12,1 °C 15,0 °C 6,1 °C 75 % 1019,0 hPa 0,0 l/m² 1,00 h 0,00 h 203 W/m² 7,9 km/h (2 Bft) 96,70 %
17.01.2026 15:00 12,1 °C 11,8 °C 6,0 °C 75 % 1019,2 hPa 0,0 l/m² 0,50 h 0,00 h 98 W/m² 6,3 km/h (2 Bft) 99,01 %
17.01.2026 16:00 11,1 °C 9,8 °C 5,1 °C 78 % 1019,5 hPa 0,0 l/m² 0,00 h 0,00 h 24 W/m² 3,5 km/h (1 Bft) 96,10 %
17.01.2026 17:00 9,4 °C 6,4 °C 2,3 °C 81 % 1019,8 hPa 0,0 l/m² 0,00 h 0,00 h 0 W/m² 0,1 km/h (0 Bft) 98,14 %
17.01.2026 18:00 7,6 °C 5,8 °C 1,6 °C 86 % 1020,2 hPa 0,0 l/m² 0,00 h 0,00 h 0 W/m² 1,3 km/h (1 Bft) 97,83 %
17.01.2026 19:00 7,3 °C 6,9 °C 2,9 °C 87 % 1020,6 hPa 0,0 l/m² 0,00 h 0,00 h 0 W/m² 6,5 km/h (2 Bft) 96,38 %
17.01.2026 20:00 7,2 °C 6,2 °C 2,5 °C 85 % 1020,9 hPa 0,0 l/m² 0,00 h 0,00 h 0 W/m² 6,7 km/h (2 Bft) 97,77 %
17.01.2026 21:00 6,5 °C 5,3 °C 1,8 °C 86 % 1021,2 hPa 0,0 l/m² 0,00 h 0,00 h 0 W/m² 5,8 km/h (2 Bft) 97,39 %
17.01.2026 22:00 5,7 °C 4,6 °C 1,2 °C 86 % 1021,5 hPa 0,0 l/m² 0,00 h 0,00 h 0 W/m² 4,5 km/h (1 Bft) 95,12 %
17.01.2026 23:00 5,0 °C 4,1 °C 0,8 °C 88 % 1021,7 hPa 0,0 l/m² 0,00 h 0,00 h 0 W/m² 7,2 km/h (2 Bft) 94,25 %
18.01.2026 00:00 4,4 °C 3,4 °C 0,1 °C 88 % 1021,8 hPa 0,0 l/m² 0,00 h 0,00 h 0 W/m² 5,8 km/h (2 Bft) 96,62 %
18.01.2026 01:00 3,8 °C 3,0 °C -0,3 °C 89 % 1021,7 hPa 0,0 l/m² 0,00 h 0,00 h 0 W/m² 6,4 km/h (2 Bft) 96,64 %
18.01.2026 02:00 3,4 °C 2,6 °C -0,6 °C 89 % 1021,7 hPa 0,0 l/m² 0,00 h 0,00 h 0 W/m² 6,6 km/h (2 Bft) 97,32 %
18.01.2026 03:00 3,1 °C 2,5 °C -0,8 °C 90 % 1021,5 hPa 0,0 l/m² 0,00 h 0,00 h 0 W/m² 10,6 km/h (2 Bft) 97,57 %
18.01.2026 04:00 2,7 °C 1,8 °C -1,2 °C 90 % 1021,5 hPa 0,0 l/m² 0,00 h 0,00 h 0 W/m² 9,5 km/h (2 Bft) 97,89 %
18.01.2026 05:00 2,2 °C 1,2 °C -1,7 °C 91 % 1021,2 hPa 0,0 l/m² 0,00 h 0,00 h 0 W/m² 7,9 km/h (2 Bft) 94,71 %
18.01.2026 06:00 1,7 °C 0,8 °C -2,2 °C 92 % 1021,4 hPa 0,0 l/m² 0,00 h 0,00 h 0 W/m² 8,3 km/h (2 Bft) 96,67 %
18.01.2026 07:00 1,2 °C 0,6 °C -2,5 °C 92 % 1021,4 hPa 0,0 l/m² 0,00 h 0,00 h 0 W/m² 10,7 km/h (2 Bft) 97,25 %
18.01.2026 08:00 0,9 °C 0,1 °C -2,8 °C 93 % 1021,8 hPa 0,0 l/m² 0,00 h 0,00 h 10 W/m² 13,9 km/h (3 Bft) 94,69 %
18.01.2026 09:00 0,9 °C 0,7 °C -2,5 °C 94 % 1021,9 hPa 0,0 l/m² 0,00 h 0,00 h 31 W/m² 12,0 km/h (2 Bft) 97,91 %
18.01.2026 10:00 1,3 °C 1,3 °C -2,1 °C 95 % 1022,0 hPa 0,0 l/m² 0,20 h 0,00 h 94 W/m² 13,0 km/h (3 Bft) 96,41 %
18.01.2026 11:00 2,7 °C 6,0 °C -1,1 °C 94 % 1021,9 hPa 0,0 l/m² 0,98 h 0,00 h 220 W/m² 12,4 km/h (3 Bft) 94,01 %
18.01.2026 12:00 3,8 °C 7,6 °C -0,4 °C 89 % 1021,5 hPa 0,0 l/m² 0,73 h 0,00 h 247 W/m² 15,0 km/h (3 Bft) 97,50 %
18.01.2026 13:00 4,5 °C 9,8 °C 0,0 °C 85 % 1020,9 hPa 0,0 l/m² 1,00 h 0,00 h 281 W/m² 17,4 km/h (3 Bft) 97,20 %
18.01.2026 14:00 4,9 °C 7,8 °C 0,0 °C 82 % 1020,5 hPa 0,0 l/m² 1,00 h 0,00 h 220 W/m² 16,3 km/h (3 Bft) 96,60 %
18.01.2026 15:00 4,7 °C 4,6 °C -0,3 °C 83 % 1020,4 hPa 0,0 l/m² 0,50 h 0,00 h 82 W/m² 13,4 km/h (3 Bft) 97,02 %
18.01.2026 16:00 3,6 °C 2,7 °C -0,9 °C 86 % 1020,3 hPa 0,0 l/m² 0,00 h 0,00 h 16 W/m² 11,5 km/h (2 Bft) 97,40 %
18.01.2026 17:00 2,6 °C 1,7 °C -1,7 °C 89 % 1020,5 hPa 0,0 l/m² 0,00 h 0,00 h 0 W/m² 11,4 km/h (2 Bft) 97,22 %
18.01.2026 18:00 2,1 °C 1,2 °C -1,8 °C 91 % 1020,5 hPa 0,0 l/m² 0,00 h 0,00 h 0 W/m² 17,0 km/h (3 Bft) 98,97 %
18.01.2026 19:00 2,2 °C 1,7 °C -1,7 °C 92 % 1020,5 hPa 0,0 l/m² 0,00 h 0,00 h 0 W/m² 19,7 km/h (3 Bft) 93,80 %
18.01.2026 20:00 2,5 °C 2,2 °C -1,3 °C 93 % 1020,4 hPa 0,0 l/m² 0,00 h 0,00 h 0 W/m² 18,1 km/h (3 Bft) 97,02 %
18.01.2026 21:00 2,9 °C 2,2 °C -1,1 °C 93 % 1020,1 hPa 0,0 l/m² 0,00 h 0,00 h 0 W/m² 17,1 km/h (3 Bft) 97,09 %
18.01.2026 22:00 3,0 °C 2,2 °C -1,1 °C 92 % 1020,0 hPa 0,0 l/m² 0,00 h 0,00 h 0 W/m² 15,0 km/h (3 Bft) 95,02 %
18.01.2026 23:00 2,6 °C 1,5 °C -1,7 °C 92 % 1020,0 hPa 0,0 l/m² 0,00 h 0,00 h 0 W/m² 6,2 km/h (2 Bft) 97,61 %
Min-Datum _ 12.01.26 12.01.26 12.01.26 17.01.26 16.01.26 - - - - 12.01.26 12.01.26
_ Min-Zeit 00:00 00:00 00:00 14:28 00:52 - - - - 23:48 00:02
Minimum _ 0,1 °C -0,6 °C -3,9 °C 74 % 1006,9 hPa - - - - 0,0 km/h (0 Bft) 9,09 %
Max-Datum _ 17.01.26 17.01.26 13.01.26 12.01.26 18.01.26 12.01.26 18.01.26 12.01.26 17.01.26 12.01.26 12.01.26
_ Max-Zeit 14:48 13:12 13:08 20:16 10:18 17:00 11:38 03:12 12:44 00:58 00:04
Maximum _ 12,4 °C 18,3 °C 7,2 °C 100 % 1022,1 hPa 3,6 l/m² 0,08 h 0,08 h 331 W/m² 41,8 km/h
S-SO (6 Bft)
100,00 %
Durchschnitt _ 6,9 °C 6,5 °C 3,0 °C 93 % 1013,8 hPa #19,9 l/m² #9:27 h #7:39 h 70 W/m² 11,2 km/h (2 Bft) 96,99 %
© 2026 W. Hausmann